Home   Weather   New York   Past weeks

Flag for USA Past Weather in New York, New York, USA — Yesterday and Last 2 Weeks

Now
54 °F

Light rain. Fog.


Feels Like: 52 °F
Forecast: 54 / 61 °F
Wind: 7 mph from North

Location: New York City - Central Park

Current Time: Apr 26, 2017 at 6:22:20 am

Latest Report: Apr 26, 2017 at 5:51 am


Visibility: 3 mi

Pressure: 29.75 "Hg

Humidity: 97%

Dew Point: 53 °F

Location of New YorkLocation

Past Weather in New York — Graph

°F

New York Temperature Yesterday

Maximum temperature yesterday: 54 °F (at 12:51 pm)
Minimum temperature yesterday: 49 °F (at 3:51 am)
Average temperature yesterday: 51 °F

High & Low Weather Summary for the Past Weeks

 TemperatureHumidityPressure
High85 °F (Apr 16, 1:51 pm)100% (Apr 25, 9:01 pm)30.54 "Hg (Apr 25, 9:01 pm)
Low45 °F (Apr 19, 5:51 am)19% (Apr 17, 3:51 pm)29.76 "Hg (Apr 26, 4:51 am)
Average57 °F64%30.13 "Hg
* Reported Apr 11 4:51 am — Apr 26 4:51 am, New York, Weather by CustomWeather, © 2017

Note: Actual official high and low records may vary slightly from our data, if they occured in-between our weather recording intervals... More about our weather records

Advertising

New York Weather History for the Previous 24 Hours

Scroll right to see more
 ConditionsComfort  
Time TempWeatherWind HumidityBarometerVisibility
4:51 am
Wed, Apr 26
55 °FRain. Fog.5 mph96%29.76 "Hg1 mi
4:38 am55 °FLight rain. Fog.7 mph100%29.78 "Hg2 mi
3:51 am54 °FFog.10 mph100%29.77 "Hg4 mi
2:51 am54 °FFog.9 mph100%29.79 "Hg4 mi
1:51 am54 °FLow clouds.8 mph97%29.80 "Hg7 mi
12:51 am53 °FFog.9 mph96%29.81 "Hg5 mi
11:51 pm
Tue, Apr 25
52 °FLight rain. Low clouds.10 mph97%29.86 "Hg8 mi
10:51 pm51 °FLight rain. Fog.10 mph100%29.88 "Hg5 mi
9:51 pm51 °FRain. Fog.16 mph100%29.89 "Hg3 mi
9:37 pm51 °FRain. Fog.13 mph96%29.92 "Hg2 mi
9:01 pm51 °FLight rain. Fog.12 mph100%29.93 "Hg3 mi
7:51 pm52 °FLight rain. Fog.12 mph97%29.90 "Hg4 mi
7:06 pm52 °FLight rain. Fog.17 mph97%29.93 "Hg2 mi
6:51 pm52 °FRain. Fog.17 mph97%29.92 "Hg1 mi
6:16 pm52 °FLight rain. Fog.20 mph97%29.95 "Hg2 mi
5:58 pm52 °FLight rain. Fog.20 mph97%29.95 "Hg3 mi
5:47 pm52 °FLight rain. Fog.23 mph97%29.93 "Hg2 mi
5:31 pm52 °FLight rain. Fog.15 mph97%29.96 "Hg3 mi
5:00 pm53 °FRain. Fog.16 mph96%29.98 "Hg2 mi
3:51 pm53 °FLight rain. Fog.14 mph96%29.98 "Hg6 mi
2:51 pm53 °FLow clouds.20 mph96%30.00 "Hg7 mi
1:51 pm54 °FLow clouds.12 mph90%30.02 "Hg10 mi
12:51 pm54 °FLow clouds.12 mph90%30.06 "Hg10 mi
11:51 am53 °FLow clouds.18 mph93%30.07 "Hg10 mi
10:51 am51 °FLow clouds.10 mph96%30.10 "Hg7 mi
9:51 am51 °FLow clouds.17 mph92%30.10 "Hg7 mi
8:51 am51 °FFog.16 mph92%30.09 "Hg5 mi
7:51 am50 °FMostly cloudy.14 mph93%30.10 "Hg10 mi
6:51 am50 °FLow clouds.12 mph93%30.08 "Hg10 mi
Weather by CustomWeather, © 2017

See weather overviewHow to use our weather pages